Location: Hartford
(41.7640°N, 72.6860°W)
Time: 11:11:20
(UTC-05:00)

ISS - All Passes

Search period start: 26 November 2014 00:00
Search period end: 06 December 2014 00:00
Orbit: 407 x 417 km, 51.6° (Epoch: 26 November)

Date Brightness Start Highest point End Pass type
(mag) Time Alt. Az. Time Alt. Az. Time Alt. Az.
26 Nov - 01:10:50 10° WNW 01:13:23 20° NNW 01:15:56 10° NE night (unlit)
26 Nov - 02:48:57 10° NNW 02:50:57 15° N 02:52:57 10° NE night (unlit)
26 Nov - 04:25:26 10° NW 04:28:23 29° NNE 04:31:20 10° E visible
26 Nov - 06:01:58 10° WNW 06:05:06 42° SW 06:08:14 10° SSE visible
26 Nov - 22:43:27 10° SW 22:46:39 51° SE 22:49:51 10° ENE night (unlit)
27 Nov - 00:20:36 10° W 00:23:27 26° NNW 00:26:18 10° NE night (unlit)
27 Nov - 01:58:58 10° NW 02:00:55 15° N 02:02:53 10° NE night (unlit)
27 Nov - 03:35:48 10° NW 03:38:28 22° NNE 03:41:08 10° ENE visible
27 Nov - 05:12:07 10° WNW 05:15:25 78° SW 05:18:43 10° SE visible
27 Nov - 21:54:09 10° SSW 21:57:00 28° SE 21:59:53 10° ENE night (unlit)
27 Nov - 23:30:29 10° W 23:33:34 37° NNW 23:36:41 10° NE night (unlit)
28 Nov - 01:08:49 10° NW 01:10:55 16° N 01:13:01 10° NNE night (unlit)
28 Nov - 02:46:09 10° NNW 02:48:31 18° NNE 02:50:52 10° ENE night (unlit)
28 Nov - 04:22:24 10° NW 04:25:40 61° NNE 04:28:56 10° ESE visible
28 Nov - 05:59:53 10° W 06:02:00 16° SW 06:04:07 10° S visible
28 Nov - 21:05:20 10° S 21:07:26 16° SE 21:09:32 10° E night (unlit)
28 Nov - 22:40:30 10° WSW 22:43:45 60° NNW 22:47:01 10° NE night (unlit)
29 Nov - 00:18:34 10° WNW 00:20:55 18° NNW 00:23:16 10° NNE night (unlit)
29 Nov - 01:56:25 10° NNW 01:58:31 16° N 02:00:37 10° NE night (unlit)
29 Nov - 03:32:45 10° NW 03:35:51 38° NNE 03:38:58 10° E visible
29 Nov - 05:09:32 10° WNW 05:12:25 28° SW 05:15:18 10° SSE visible
29 Nov - 21:50:44 10° SW 21:54:01 78° SE 21:57:18 10° ENE night (unlit)
29 Nov - 23:28:19 10° WNW 23:30:58 22° NNW 23:33:37 10° NE night (unlit)
30 Nov - 01:06:33 10° NW 01:08:30 15° N 01:10:28 10° NE night (unlit)
30 Nov - 02:43:07 10° NW 02:45:59 26° NNE 02:48:50 10° E night (unlit)
30 Nov - 04:19:34 10° WNW 04:22:47 51° SW 04:25:59 10° SE visible
30 Nov - 21:01:13 10° SSW 21:04:20 42° SE 21:07:28 10° ENE night (unlit)
30 Nov - 22:38:07 10° W 22:41:03 29° NNW 22:44:00 10° NE night (unlit)
01 Dec - 00:16:30 10° NW 00:18:30 15° N 00:20:29 10° NNE night (unlit)
01 Dec - 01:53:30 10° NW 01:56:04 20° NNE 01:58:37 10° ENE night (unlit)
01 Dec - 03:29:47 10° NW 03:33:05 87° NE 03:36:23 10° SE night (unlit)
01 Dec - 05:08:24 10° WSW 05:09:15 11° SW 05:10:06 10° SW visible
01 Dec - 20:12:02 10° S 20:14:43 23° SE 20:17:24 10° E night (unlit)
01 Dec - 21:48:03 10° WSW 21:51:13 43° NNW 21:54:23 10° NE night (unlit)
01 Dec - 23:26:19 10° NW 23:28:30 16° N 23:30:40 10° NNE night (unlit)
02 Dec - 01:03:50 10° NNW 01:06:06 17° NNE 01:08:22 10° NE night (unlit)
02 Dec - 02:40:05 10° NW 02:43:19 51° NNE 02:46:32 10° ESE night (unlit)
02 Dec - 04:17:18 10° W 04:19:44 19° SW 04:22:09 10° S visible
02 Dec - 19:23:31 10° SSE 19:25:10 13° SE 19:26:50 10° E night (unlit)
02 Dec - 20:58:09 10° WSW 21:01:25 72° NNW 21:04:43 10° NE night (unlit)
02 Dec - 22:36:04 10° WNW 22:38:31 19° NNW 22:40:58 10° NNE night (unlit)
03 Dec - 00:14:04 10° NNW 00:16:06 15° N 00:18:09 10° NE night (unlit)
03 Dec - 01:50:28 10° NW 01:53:30 33° NNE 01:56:31 10° E night (unlit)
03 Dec - 03:27:07 10° WNW 03:30:08 34° SW 03:33:09 10° SSE night (unlit)
03 Dec - 20:08:27 10° SW 20:11:42 64° SE 20:14:58 10° ENE night (unlit)
03 Dec - 21:45:50 10° WNW 21:48:35 24° NNW 21:51:21 10° NE night (unlit)
03 Dec - 23:24:09 10° NW 23:26:06 15° N 23:28:03 10° NE night (unlit)
04 Dec - 01:00:51 10° NW 01:03:37 24° NNE 01:06:22 10° ENE night (unlit)
04 Dec - 02:37:14 10° WNW 02:40:29 63° SW 02:43:44 10° SE night (unlit)
04 Dec - 19:19:02 10° SSW 19:22:03 34° SE 19:25:05 10° ENE visible
04 Dec - 20:55:41 10° W 20:58:42 33° NNW 21:01:44 10° NE night (unlit)
04 Dec - 22:34:04 10° NW 22:36:06 15° N 22:38:08 10° NNE night (unlit)
05 Dec - 00:11:13 10° NNW 00:13:41 19° NNE 00:16:08 10° ENE night (unlit)
05 Dec - 01:47:29 10° NW 01:50:46 73° NNE 01:54:03 10° ESE night (unlit)
05 Dec - 03:25:24 10° W 03:27:01 13° SW 03:28:38 10° SSW night (unlit)
05 Dec - 18:30:01 10° S 18:32:28 19° SE 18:34:55 10° E visible
05 Dec - 20:05:40 10° WSW 20:08:53 51° NNW 20:12:07 10° NE night (unlit)
05 Dec - 21:43:51 10° NW 21:46:06 17° N 21:48:22 10° NNE night (unlit)
05 Dec - 23:21:32 10° NNW 23:23:43 16° N 23:25:53 10° NE night (unlit)
